TimeCDT,TemperatureF,Dew PointF,Humidity,Sea Level PressureIn,VisibilityMPH,Wind Direction,Wind SpeedMPH,Gust SpeedMPH,PrecipitationIn,Events,Conditions,WindDirDegrees,DateUTC
12:11 AM,68.7,67.5,96,30.09,10.0,East,3.5,-,N/A,,Clear,90,2013-07-18 05:11:00
12:31 AM,67.6,66.7,97,30.09,10.0,East,3.5,-,N/A,,Clear,80,2013-07-18 05:31:00
12:50 AM,68.2,67.6,98,30.07,10.0,East,4.6,-,0.01,,Clear,90,2013-07-18 05:50:00
1:11 AM,68.2,67.5,98,30.07,10.0,ENE,4.6,-,N/A,,Mostly Cloudy,70,2013-07-18 06:11:00
1:31 AM,69.1,68.9,99,30.06,5.0,East,5.8,-,N/A,,Overcast,100,2013-07-18 06:31:00
1:50 AM,69.3,68.9,99,30.05,5.0,ESE,4.6,-,N/A,,Overcast,110,2013-07-18 06:50:00
2:11 AM,69.4,69.1,99,30.05,5.0,East,3.5,-,N/A,,Overcast,100,2013-07-18 07:11:00
2:31 AM,69.1,68.9,99,30.04,5.0,East,3.5,-,N/A,,Mostly Cloudy,100,2013-07-18 07:31:00
2:50 AM,69.3,68.9,99,30.04,7.0,East,4.6,-,N/A,,Mostly Cloudy,100,2013-07-18 07:50:00
3:11 AM,69.8,69.3,98,30.03,7.0,ESE,5.8,-,N/A,,Overcast,120,2013-07-18 08:11:00
3:31 AM,69.8,69.3,98,30.02,5.0,East,3.5,-,N/A,,Overcast,100,2013-07-18 08:31:00
3:50 AM,69.4,69.1,99,30.01,7.0,ESE,3.5,-,N/A,,Overcast,110,2013-07-18 08:50:00
4:11 AM,69.4,69.1,99,30.00,5.0,ESE,3.5,-,N/A,,Overcast,110,2013-07-18 09:11:00
4:31 AM,69.4,69.1,99,29.99,5.0,ESE,4.6,-,N/A,,Mostly Cloudy,110,2013-07-18 09:31:00
4:50 AM,69.8,69.3,98,29.98,7.0,ESE,4.6,-,N/A,,Scattered Clouds,110,2013-07-18 09:50:00
5:11 AM,69.8,69.3,98,29.97,5.0,ESE,4.6,-,N/A,,Clear,120,2013-07-18 10:11:00
5:31 AM,69.8,69.3,98,29.96,4.0,ESE,3.5,-,N/A,,Clear,110,2013-07-18 10:31:00
5:50 AM,69.8,69.3,98,29.96,5.0,SE,4.6,-,0.01,,Scattered Clouds,140,2013-07-18 10:50:00
6:11 AM,69.8,69.1,98,29.95,7.0,SSE,3.5,-,N/A,,Scattered Clouds,150,2013-07-18 11:11:00
6:31 AM,70.0,68.9,96,29.94,7.0,South,4.6,-,N/A,,Scattered Clouds,170,2013-07-18 11:31:00
6:50 AM,70.3,68.9,95,29.93,10.0,South,3.5,-,N/A,,Clear,170,2013-07-18 11:50:00
7:11 AM,70.7,69.1,95,29.92,7.0,South,4.6,-,N/A,,Clear,190,2013-07-18 12:11:00
7:31 AM,71.6,69.1,92,29.91,10.0,SSW,5.8,-,N/A,Thunderstorm,Clear,210,2013-07-18 12:31:00
7:50 AM,72.1,69.8,92,29.90,7.0,SSW,4.6,-,N/A,,Clear,200,2013-07-18 12:50:00
8:11 AM,73.6,70.5,90,29.89,7.0,SSW,8.1,-,0.01,,Clear,200,2013-07-18 13:11:00
8:31 AM,74.7,70.3,86,29.89,7.0,SSW,9.2,-,0.01,,Clear,210,2013-07-18 13:31:00
8:51 AM,75.6,70.7,85,29.88,7.0,SW,8.1,-,0.01,,Clear,220,2013-07-18 13:51:00
9:11 AM,77.9,70.7,78,29.87,10.0,WSW,8.1,-,N/A,,Clear,240,2013-07-18 14:11:00
9:31 AM,79.7,71.2,75,29.87,7.0,SW,6.9,-,N/A,,Clear,230,2013-07-18 14:31:00
9:50 AM,79.5,70.5,74,29.87,10.0,SW,8.1,-,N/A,,Mostly Cloudy,230,2013-07-18 14:50:00
10:10 AM,80.2,70.9,73,29.87,7.0,West,8.1,-,N/A,,Overcast,260,2013-07-18 15:10:00
10:31 AM,82.4,71.6,70,29.87,10.0,WNW,8.1,-,N/A,,Overcast,290,2013-07-18 15:31:00
10:51 AM,82.2,70.7,68,29.86,10.0,WNW,10.4,-,N/A,,Scattered Clouds,290,2013-07-18 15:51:00
11:11 AM,82.2,69.3,65,29.86,10.0,West,12.7,-,N/A,,Clear,270,2013-07-18 16:11:00
11:31 AM,81.7,68.9,65,29.85,10.0,West,10.4,-,0.01,,Clear,270,2013-07-18 16:31:00
11:50 AM,83.8,70.3,64,29.85,10.0,WSW,9.2,-,0.01,,Clear,250,2013-07-18 16:50:00
12:11 PM,83.7,70.5,64,29.84,10.0,WSW,9.2,-,N/A,,Scattered Clouds,250,2013-07-18 17:11:00
12:31 PM,84.0,70.9,64,29.82,10.0,WSW,8.1,-,N/A,,Scattered Clouds,240,2013-07-18 17:31:00
12:50 PM,85.1,72.0,65,29.81,10.0,SSW,4.6,-,N/A,,Clear,200,2013-07-18 17:50:00
1:11 PM,85.8,70.7,60,29.80,10.0,SSW,11.5,17.3,N/A,,Clear,200,2013-07-18 18:11:00
1:31 PM,86.4,71.8,62,29.79,7.0,SSW,11.5,16.1,N/A,,Clear,210,2013-07-18 18:31:00
1:50 PM,87.1,71.8,60,29.78,10.0,SSW,10.4,18.4,N/A,,Clear,210,2013-07-18 18:50:00
2:11 PM,87.4,71.6,59,29.77,10.0,SSW,10.4,17.3,0.01,,Clear,200,2013-07-18 19:11:00
2:31 PM,87.8,71.4,58,29.77,10.0,South,13.8,20.7,0.01,,Clear,190,2013-07-18 19:31:00
2:50 PM,87.4,70.5,57,29.76,10.0,SW,15.0,23.0,0.01,,Clear,220,2013-07-18 19:50:00
3:11 PM,86.9,71.4,60,29.75,10.0,SW,13.8,18.4,N/A,,Clear,220,2013-07-18 20:11:00
3:30 PM,88.3,71.6,57,29.75,7.0,SSW,15.0,21.9,N/A,,Scattered Clouds,210,2013-07-18 20:30:00
3:51 PM,87.1,72.3,61,29.75,7.0,SSW,17.3,-,N/A,,Scattered Clouds,210,2013-07-18 20:51:00
4:11 PM,88.5,72.7,59,29.75,7.0,SW,12.7,17.3,N/A,,Scattered Clouds,230,2013-07-18 21:11:00
4:31 PM,87.3,70.9,58,29.75,10.0,WSW,17.3,25.3,N/A,,Scattered Clouds,240,2013-07-18 21:31:00
4:51 PM,86.9,72.0,61,29.74,10.0,SW,15.0,23.0,N/A,,Scattered Clouds,230,2013-07-18 21:51:00
5:11 PM,87.4,71.8,60,29.74,7.0,WSW,16.1,24.2,N/A,,Scattered Clouds,240,2013-07-18 22:11:00
5:31 PM,87.8,72.7,61,29.73,7.0,SW,13.8,17.3,N/A,,Clear,230,2013-07-18 22:31:00
5:51 PM,87.1,72.3,61,29.72,7.0,SW,16.1,23.0,N/A,,Scattered Clouds,230,2013-07-18 22:51:00
6:11 PM,86.7,72.0,61,29.70,10.0,WSW,15.0,23.0,N/A,,Scattered Clouds,240,2013-07-18 23:11:00
6:31 PM,86.0,71.4,62,29.69,10.0,WSW,15.0,24.2,N/A,Thunderstorm,Scattered Clouds,250,2013-07-18 23:31:00
6:50 PM,84.2,71.6,66,29.69,10.0,WSW,11.5,20.7,N/A,,Scattered Clouds,240,2013-07-18 23:50:00
7:11 PM,83.7,71.8,67,29.68,10.0,WSW,6.9,-,N/A,,Clear,240,2013-07-19 00:11:00
7:31 PM,84.4,72.5,67,29.68,10.0,WSW,8.1,-,N/A,,Scattered Clouds,240,2013-07-19 00:31:00
7:50 PM,84.4,72.7,68,29.68,10.0,WSW,9.2,-,N/A,,Mostly Cloudy,240,2013-07-19 00:50:00
8:11 PM,83.3,72.1,69,29.68,10.0,WSW,8.1,-,N/A,,Mostly Cloudy,250,2013-07-19 01:11:00
8:31 PM,82.9,72.7,71,29.68,10.0,West,5.8,-,N/A,,Overcast,260,2013-07-19 01:31:00
8:50 PM,82.2,72.5,72,29.68,10.0,West,6.9,-,N/A,,Overcast,270,2013-07-19 01:50:00
9:11 PM,81.5,72.7,74,29.68,10.0,West,11.5,-,N/A,,Mostly Cloudy,280,2013-07-19 02:11:00
9:31 PM,79.5,72.5,79,29.69,10.0,NW,12.7,-,N/A,,Mostly Cloudy,310,2013-07-19 02:31:00
9:50 PM,78.6,72.5,81,29.70,10.0,NW,10.4,-,N/A,,Mostly Cloudy,320,2013-07-19 02:50:00
10:11 PM,77.2,72.3,85,29.71,5.0,NW,8.1,-,N/A,,Haze,310,2013-07-19 03:11:00
10:31 PM,76.3,72.1,87,29.71,10.0,NW,10.4,-,N/A,,Clear,310,2013-07-19 03:31:00
10:50 PM,75.7,71.6,87,29.71,10.0,WNW,11.5,-,N/A,,Clear,300,2013-07-19 03:50:00
11:11 PM,75.2,71.6,89,29.71,10.0,WNW,8.1,-,N/A,,Clear,290,2013-07-19 04:11:00
11:31 PM,75.0,71.2,88,29.71,10.0,West,10.4,-,N/A,,Clear,280,2013-07-19 04:31:00
11:50 PM,74.3,70.9,89,29.70,10.0,West,5.8,-,N/A,,Clear,260,2013-07-19 04:50:00